Location: Unspecified
(0.0000°N, 0.0000°E)
Time: 13:27:27
(UTC+00:00)

S-56A Canister/Altair - Visible Passes

Search period start: 06 February 2016 00:00
Search period end: 16 February 2016 00:00
Orbit: 639 x 2496 km, 38.9° (Epoch: 06 February)

Date Brightness Start Highest point End Pass type
(mag) Time Alt. Az. Time Alt. Az. Time Alt. Az.
06 Feb 11.1 01:44:18 16° SE 01:44:18 16° SE 01:45:46 10° SE visible
06 Feb 10.5 03:41:45 22° SSW 03:41:45 22° SSW 03:47:20 10° S visible
07 Feb 10.5 03:11:04 24° SSW 03:11:04 24° SSW 03:15:41 10° SSE visible
08 Feb 10.7 02:40:19 22° S 02:40:19 22° S 02:43:51 10° SSE visible
08 Feb 11.5 21:36:21 10° NNW 21:36:41 11° NNW 21:36:41 11° NNW visible
09 Feb 11.0 02:09:32 19° SSE 02:09:32 19° SSE 02:11:52 10° SSE visible
09 Feb 11.3 21:04:00 10° N 21:06:12 14° N 21:06:12 14° N visible
10 Feb 11.3 01:38:42 14° SSE 01:38:42 14° SSE 01:39:44 10° SSE visible
10 Feb 11.1 03:36:08 10° SSW 03:36:08 10° SSW 03:36:46 10° SSW visible
10 Feb 11.1 20:31:52 10° N 20:35:47 16° N 20:35:47 16° N visible
11 Feb 11.1 03:05:15 12° SSW 03:05:15 12° SSW 03:07:16 10° S visible
11 Feb 11.0 20:00:02 10° N 20:05:27 15° NNE 20:05:27 15° NNE visible
11 Feb 11.4 22:01:28 10° NNW 22:02:56 14° NNW 22:02:56 14° NNW visible
12 Feb 11.2 02:34:20 13° S 02:34:20 13° S 02:36:09 10° S visible
12 Feb 11.1 19:28:44 10° N 19:33:56 13° NNE 19:35:12 13° NE visible
12 Feb 11.0 21:28:50 10° NNW 21:32:41 22° NNW 21:32:41 22° NNW visible
13 Feb 11.3 02:03:23 13° S 02:03:23 13° S 02:04:32 10° S visible
13 Feb 11.1 18:59:58 10° NNE 19:00:37 10° NNE 19:01:16 10° NE visible
13 Feb 10.7 20:56:20 10° NNW 21:02:33 29° N 21:02:33 29° N visible
14 Feb 11.5 01:32:22 11° S 01:32:22 11° S 01:32:39 10° SSE visible
14 Feb 10.5 20:23:58 10° NNW 20:32:33 32° NNE 20:32:33 32° NNE visible
14 Feb 11.4 22:27:57 10° NW 22:30:04 17° NW 22:30:04 17° NW visible
15 Feb 10.4 19:51:45 10° NNW 20:02:24 30° NE 20:02:42 30° NE visible
15 Feb 10.8 21:55:03 10° NW 22:00:13 30° NW 22:00:13 30° NW visible
